Starlink 35282

operational
NORAD ID: 65658 Int'l Des: 2025-211 Owner: SPXS Country: US Constellation: starlink
LEOCIRCULARRETROGRADESSO

关于 Starlink 35282

正在加载描述...

实时位置

正在加载3D地球...

即将过境

高度历史

Altitude vs Time

uPlot chart will show altitude changes over time

两行轨道根数

1 65658U 25211G 26061.12939438 .00003290 00000-0 23211-3 0 9991
2 65658 97.6040 106.6034 0001034 102.3291 257.8051 15.05652436 25905
Epoch: Mar 2, 2026 • Age: 30 hours

当前状态

高度 569.6 km
速度 7.57 km/s
星下点 -50.53°S, 32.68°E
发射日期 Sep 19, 2025
运行时间 0.4 years
类型 internet

技术详情

分类 Payload
质量 575.00 kg
干质量 530.00 kg
总质量 575.00 kg
长度 0.30 m
直径 4.10 m
跨度 29.00 m
形状 Box + pan
制造商 SPXS
平台类型 Starlink V2MO
阶段状态 In Orbit
所有者/国家 SPXS/US

大型星座

Loading constellations...